Location: Campo Alegre
(10.1673°N, 67.4431°W)
Time: 14:00:44
(UTC+00:00)

ATLAS 5 CENTAUR R/B - Pass Details

Date: 14 April 2024
Orbit: 255 x 11835 km, 20.2° (Epoch: 27 May)

Event Time Altitude Azimuth Distance (km) Brightness Sun altitude
Rises 06:07:11 0° 262° (W) 15,275 7.8 -58.8°
Reaches altitude 10° 06:28:13 10° 267° (W) 11,720 7.1 -54.6°
Enters shadow 06:29:22 11° 267° (W) 11,483 7.1 -54.3°
Exits shadow 07:05:46 48° 22° (NNE) 2,199 3.8 -46.5°
Drops below altitude 10° 07:10:31 10° 61° (ENE) 2,871 5.0 -45.4°
Sets 07:12:10 0° 67° (ENE) 3,397 5.6 -45.1°
